^^
Datos históricos de la estación: Murcia-Puente Tocinos
Diario Informe para Junio 28, 2019 Unidades:  Inglés    Métrico   Ambas
Diario Semanal Mensual Anual Configurable
  Máximo: Mínimo: Media:
Temperatura: 93.7 °F 73.4 °F 83.5 °F
Punto de rocio: 63 °F 54.3 °F 59.4 °F
Humedad: 63% 27% 46%
Velocidad viento: 11.2mph 0mph 4.9mph
Racha viento: 19.6mph - -
Viento- - ESE
Presión: 30 in 29.9 in -
Precipitación: 0 in    
Historical Graphs
 
 
Tabla de datos para Junio 28, 2019
Hora Temperatura Punto de rocio Presión Viento Velocidad viento Racha viento Humedad Intensidad lluvia(por hora) Nubes
00:00 80.1 °F 60.8 °F 30 in WNW 2.4 mph 4.6 mph 52% 0 in CLR
00:05 79.9 °F 61.2 °F 30 in NW 2.4 mph 4.6 mph 53% 0 in CLR
00:10 79.5 °F 61 °F 30 in WNW 2.9 mph 4.6 mph 53% 0 in CLR
00:15 79.5 °F 61 °F 30 in WNW 2.9 mph 2.3 mph 53% 0 in CLR
00:20 79.5 °F 61.3 °F 30 in WNW 1.4 mph 2 mph 54% 0 in CLR
00:25 79.5 °F 61.3 °F 30 in NNW 1.4 mph 4.6 mph 54% 0 in CLR
00:30 79.5 °F 61.3 °F 30 in NE 2 mph 4.6 mph 54% 0 in CLR
00:35 79.3 °F 61.2 °F 30 in NE 2 mph 6.9 mph 54% 0 in CLR
00:40 79.3 °F 61.9 °F 30 in NE 3.6 mph 5.8 mph 55% 0 in CLR
00:45 79.2 °F 62.1 °F 30 in NE 3.6 mph 4.6 mph 56% 0 in CLR
00:50 79 °F 61.9 °F 30 in NE 2.9 mph 2 mph 56% 0 in CLR
00:55 78.6 °F 62.1 °F 30 in NE 2.9 mph 2.3 mph 57% 0 in CLR
01:00 78.6 °F 62.1 °F 30 in Calm     57% 0 in CLR
01:05 78.4 °F 61.9 °F 30 in Calm     57% 0 in CLR
01:10 78.3 °F 62.2 °F 30 in Calm     58% 0 in CLR
01:15 78.3 °F 62.2 °F 30 in Calm     58% 0 in CLR
01:20 78.1 °F 62.1 °F 30 in Calm     58% 0 in CLR
01:25 78.1 °F 62.6 °F 30 in Calm     59% 0 in CLR
01:30 78.1 °F 62.6 °F 30 in Calm     59% 0 in CLR
01:35 78.1 °F 62.6 °F 30 in Calm     59% 0 in CLR
01:40 78.1 °F 62.6 °F 30 in Calm     59% 0 in CLR
01:45 77.9 °F 62.4 °F 30 in Calm     59% 0 in CLR
01:50 77.9 °F 62.4 °F 30 in Calm     59% 0 in CLR
01:55 77.7 °F 62.2 °F 30 in Calm     59% 0 in CLR
02:00 77.5 °F 62.1 °F 30 in Calm     59% 0 in CLR
02:05 77.5 °F 62.6 °F 30 in Calm     60% 0 in CLR
02:10 77.4 °F 62.4 °F 30 in Calm     60% 0 in CLR
02:15 77.4 °F 62.4 °F 30 in Calm     60% 0 in CLR
02:20 77.4 °F 62.4 °F 30 in Calm     60% 0 in CLR
02:25 77.4 °F 62.4 °F 30 in Calm     60% 0 in CLR
02:30 77.4 °F 63 °F 30 in Calm     61% 0 in CLR
02:35 77.4 °F 63 °F 30 in Calm   3.5 mph 61% 0 in CLR
02:40 77.2 °F 62.8 °F 30 in Calm     61% 0 in CLR
02:45 77.2 °F 62.8 °F 30 in Calm     61% 0 in CLR
02:50 77.2 °F 62.8 °F 30 in Calm     61% 0 in CLR
02:55 77.4 °F 62.4 °F 30 in Calm     60% 0 in CLR
03:00 77.4 °F 62.4 °F 30 in Calm     60% 0 in CLR
03:05 77.4 °F 62.4 °F 30 in Calm     60% 0 in CLR
03:10 77.4 °F 61.9 °F 30 in Calm     59% 0 in CLR
03:15 77.2 °F 62.2 °F 30 in Calm     60% 0 in CLR
03:20 77 °F 62.4 °F 30 in Calm     61% 0 in CLR
03:25 76.8 °F 62.2 °F 30 in Calm     61% 0 in CLR
03:30 76.6 °F 62.2 °F 30 in Calm     61% 0 in CLR
03:35 76.5 °F 62.1 °F 30 in Calm     61% 0 in CLR
03:40 76.3 °F 61.9 °F 30 in Calm     61% 0 in CLR
03:45 76.3 °F 61.9 °F 30 in Calm     61% 0 in CLR
03:50 76.3 °F 61 °F 30 in Calm     59% 0 in CLR
03:55 76.3 °F 61 °F 30 in Calm   2.3 mph 59% 0 in CLR
04:00 76.3 °F 61.3 °F 30 in SSE 1.4 mph   60% 0 in CLR
04:05 76.1 °F 62.1 °F 30 in SSE 1.4 mph   62% 0 in CLR
04:10 75.9 °F 62.1 °F 30 in Calm     62% 0 in CLR
04:15 75.6 °F 61.5 °F 30 in Calm     62% 0 in CLR
04:20 75.4 °F 61.9 °F 30 in Calm     63% 0 in CLR
04:25 75.2 °F 61.7 °F 30 in Calm     63% 0 in CLR
04:30 75 °F 61.5 °F 30 in Calm     63% 0 in CLR
04:35 75 °F 61.5 °F 30 in Calm     63% 0 in CLR
04:40 75 °F 61.2 °F 30 in Calm     62% 0 in CLR
04:45 75 °F 60.6 °F 30 in Calm   1.4 mph 61% 0 in CLR
04:50 74.8 °F 61 °F 30 in SSE 1.4 mph 4.6 mph 62% 0 in CLR
04:55 74.7 °F 60.3 °F 30 in SSE 1.4 mph 6.4 mph 61% 0 in CLR
05:00 74.3 °F 60.1 °F 30 in SSE 4 mph 6.9 mph 61% 0 in CLR
05:05 74.1 °F 60.3 °F 30 in SSE 4 mph 5.8 mph 62% 0 in CLR
05:10 73.9 °F 60.1 °F 30 in SSE 4.7 mph 4.6 mph 62% 0 in CLR
05:15 73.9 °F 60.1 °F 30 in SSE 4.7 mph 5.8 mph 62% 0 in CLR
05:20 73.9 °F 60.1 °F 30 in SSE 4 mph 5.2 mph 62% 0 in CLR
05:25 73.9 °F 60.1 °F 30 in SSW 4 mph 6.2 mph 62% 0 in CLR
05:30 73.9 °F 60.1 °F 30 in SW 4 mph 5.8 mph 62% 0 in CLR
05:35 74.1 °F 59.7 °F 30 in SE 4 mph 3.5 mph 61% 0 in CLR
05:40 73.9 °F 59.5 °F 30 in SSE 3.6 mph 4.7 mph 61% 0 in CLR
05:45 73.8 °F 59.9 °F 30 in SSW 3.6 mph 5.8 mph 62% 0 in CLR
05:50 73.8 °F 59.5 °F 30 in SSW 4 mph 4.6 mph 61% 0 in CLR
05:55 73.8 °F 59.5 °F 30 in SSW 4 mph 3.5 mph 61% 0 in CLR
06:00 73.8 °F 59.5 °F 30 in ESE 2.4 mph 5.8 mph 61% 0 in CLR
06:05 73.6 °F 59.7 °F 30 in South 2.4 mph 4.6 mph 62% 0 in CLR
06:10 73.4 °F 59.2 °F 30 in SSW 3.6 mph 4.6 mph 61% 0 in CLR
06:15 73.6 °F 59.4 °F 30 in SSW 3.6 mph 4.6 mph 61% 0 in CLR
06:20 73.6 °F 59.4 °F 30 in South 3.6 mph 4.6 mph 61% 0 in CLR
06:25 73.8 °F 59.5 °F 30 in South 3.6 mph 3.6 mph 61% 0 in CLR
06:30 73.8 °F 59 °F 30 in SW 2.4 mph 5.8 mph 60% 0 in CLR
06:35 73.9 °F 59.2 °F 30 in South 2.4 mph 4.7 mph 60% 0 in CLR
06:40 73.9 °F 59.2 °F 30 in SSW 3.1 mph 3.5 mph 60% 0 in CLR
06:45 73.9 °F 59.2 °F 30 in SSW 3.1 mph 4.7 mph 60% 0 in CLR
06:50 74.1 °F 58.8 °F 30 in SSE 3.1 mph 5.2 mph 59% 0 in CLR
06:55 74.1 °F 58.8 °F 30 in SSW 3.1 mph 5.8 mph 59% 0 in CLR
07:00 74.1 °F 58.8 °F 30 in SSW 4.3 mph 8.1 mph 59% 0 in CLR
07:05 74.1 °F 58.8 °F 30 in SSW 4.3 mph 5.8 mph 59% 0 in CLR
07:10 74.1 °F 58.8 °F 30 in SSW 5.2 mph 6.9 mph 59% 0 in CLR
07:15 73.9 °F 58.6 °F 30 in SW 5.2 mph 8.1 mph 59% 0 in CLR
07:20 73.9 °F 58.6 °F 30 in SSW 5.2 mph 6.9 mph 59% 0 in CLR
07:25 74.1 °F 58.8 °F 30 in SSW 5.2 mph 5.8 mph 59% 0 in CLR
07:30 74.1 °F 58.8 °F 30 in South 4.3 mph 5.8 mph 59% 0 in CLR
07:35 74.1 °F 58.8 °F 30 in SW 4.3 mph 5.8 mph 59% 0 in CLR
07:40 74.1 °F 58.8 °F 30 in WSW 4.7 mph 5.8 mph 59% 0 in CLR
07:45 74.3 °F 59 °F 30 in SW 4.7 mph 6.9 mph 59% 0 in CLR
07:50 74.5 °F 59.2 °F 30 in SW 4 mph 8.1 mph 59% 0 in CLR
07:55 74.5 °F 59.2 °F 30 in SW 4 mph 10.4 mph 59% 0 in CLR
08:00 74.5 °F 58.6 °F 30 in SW 5.2 mph 9.2 mph 58% 0 in CLR
08:05 74.7 °F 58.8 °F 30 in SW 5.2 mph 8.1 mph 58% 0 in CLR
08:10 74.8 °F 59.2 °F 30 in SW 4.7 mph 6.9 mph 58% 0 in CLR
08:15 75 °F 58.8 °F 30 in WSW 4.7 mph 6.9 mph 57% 0 in CLR
08:20 75.4 °F 59.2 °F 30 in SW 4.7 mph 6.9 mph 57% 0 in CLR
08:25 75.6 °F 59.4 °F 30 in WSW 4.7 mph 5.8 mph 57% 0 in CLR
08:30 75.7 °F 58.8 °F 30 in South 4.7 mph 6.9 mph 56% 0 in CLR
08:35 75.9 °F 59.2 °F 30 in SSW 4.7 mph 5.2 mph 56% 0 in CLR
08:40 76.3 °F 58.8 °F 30 in WSW 3.6 mph 6.9 mph 55% 0 in CLR
08:45 76.5 °F 59.2 °F 30 in WSW 3.6 mph 5.8 mph 55% 0 in CLR
08:50 76.6 °F 59.4 °F 30 in SSW 4.3 mph 8.1 mph 55% 0 in CLR
08:55 76.8 °F 59.4 °F 30 in SW 4.3 mph 6.9 mph 55% 0 in CLR
09:00 77.2 °F 59.2 °F 30 in SSW 4.7 mph 5.8 mph 54% 0 in CLR
09:05 77.4 °F 58.8 °F 30 in SW 4.7 mph 6.9 mph 53% 0 in CLR
09:10 77.5 °F 59.2 °F 30 in SW 4.3 mph 5.8 mph 53% 0 in CLR
09:15 77.7 °F 59.2 °F 30 in WSW 4.3 mph 3.5 mph 53% 0 in CLR
09:20 78.3 °F 59.2 °F 30 in SSW 3.1 mph 8.1 mph 52% 0 in CLR
09:25 78.4 °F 59.4 °F 30 in SW 3.1 mph 4.6 mph 52% 0 in CLR
09:30 78.6 °F 59 °F 30 in SW 3.6 mph 5.8 mph 51% 0 in CLR
09:35 78.8 °F 59.2 °F 30 in South 3.6 mph 5.8 mph 51% 0 in CLR
09:40 79.2 °F 59.5 °F 30 in SW 4 mph 4.6 mph 51% 0 in CLR
09:45 79.3 °F 59.5 °F 30 in WSW 4 mph 3.1 mph 51% 0 in CLR
09:50 79.5 °F 59.2 °F 30 in South 3.6 mph 4.3 mph 50% 0 in CLR
09:55 80.1 °F 59.7 °F 30 in South 3.6 mph 8.1 mph 50% 0 in CLR
10:00 80.2 °F 59.9 °F 30 in South 3.6 mph 5.8 mph 50% 0 in CLR
10:05 80.4 °F 59.5 °F 30 in SW 3.6 mph 4.6 mph 49% 0 in CLR
10:10 80.8 °F 59.7 °F 30 in SSW 3.6 mph 5.8 mph 49% 0 in CLR
10:15 81.1 °F 60.3 °F 30 in SSW 3.6 mph 3.5 mph 49% 0 in CLR
10:20 81.7 °F 60.1 °F 30 in SW 2.4 mph 4.6 mph 48% 0 in CLR
10:25 82 °F 60.4 °F 30 in SW 2.4 mph 4.6 mph 48% 0 in CLR
10:30 82.6 °F 60.3 °F 30 in SSW 2.9 mph 5.4 mph 47% 0 in CLR
10:35 83.3 °F 60.4 °F 30 in SW 2.9 mph 5.8 mph 46% 0 in CLR
10:40 83.5 °F 60.4 °F 30 in West 2.9 mph 3.5 mph 46% 0 in CLR
10:45 83.8 °F 60.3 °F 30 in South 2.9 mph 4.6 mph 45% 0 in CLR
10:50 84 °F 60.4 °F 30 in SSW 2.4 mph 3.5 mph 45% 0 in CLR
10:55 84.4 °F 60.6 °F 30 in SSE 2.4 mph 6.9 mph 45% 0 in CLR
11:00 84.4 °F 60.1 °F 30 in SW 4 mph 5.8 mph 44% 0 in CLR
11:05 84.6 °F 60.3 °F 30 in SE 4 mph 4.6 mph 44% 0 in CLR
11:10 84.9 °F 59.9 °F 30 in SW 3.6 mph 4.6 mph 43% 0 in CLR
11:15 85.6 °F 59.9 °F 30 in SSW 3.6 mph 3.5 mph 42% 0 in CLR
11:20 86.2 °F 59.7 °F 30 in WNW 2.4 mph 4.6 mph 41% 0 in CLR
11:25 86.5 °F 58.6 °F 30 in NNE 2.4 mph 6.9 mph 39% 0 in CLR
11:30 86.9 °F 59 °F 30 in ENE 3.1 mph 5.8 mph 39% 0 in CLR
11:35 87.1 °F 58.5 °F 30 in ENE 3.1 mph 6.9 mph 38% 0 in CLR
11:40 87.1 °F 59.2 °F 30 in ENE 4.3 mph 8.1 mph 39% 0 in CLR
11:45 87.3 °F 58.6 °F 30 in NE 4.3 mph 5.8 mph 38% 0 in CLR
11:50 87.4 °F 58.6 °F 30 in NE 4 mph 6.9 mph 38% 0 in CLR
11:55 88.2 °F 58.6 °F 30 in East 4 mph 3.5 mph 37% 0 in CLR
12:00 88.7 °F 58.3 °F 30 in NNW 2.9 mph 5.9 mph 36% 0 in CLR
12:05 88.7 °F 57.6 °F 30 in NE 2.9 mph 8.1 mph 35% 0 in CLR
12:10 88.5 °F 57.4 °F 30 in NE 5.2 mph 4.7 mph 35% 0 in CLR
12:15 88.5 °F 58.3 °F 30 in ENE 5.2 mph 9.2 mph 36% 0 in CLR
12:20 88.5 °F 58.3 °F 30 in NE 5.2 mph 6.9 mph 36% 0 in CLR
12:25 88.9 °F 58.5 °F 30 in ESE 5.2 mph 5.8 mph 36% 0 in CLR
12:30 89.4 °F 58.3 °F 30 in NW 3.6 mph 4.6 mph 35% 0 in CLR
12:35 89.4 °F 56.5 °F 30 in East 3.6 mph 4.6 mph 33% 0 in CLR
12:40 89.6 °F 56.7 °F 30 in NNE 4.7 mph 11.5 mph 33% 0 in CLR
12:45 89.8 °F 57.7 °F 30 in North 4.7 mph 10.4 mph 34% 0 in CLR
12:50 89.8 °F 57.7 °F 30 in NE 6.2 mph 8.5 mph 34% 0 in CLR
12:55 90.1 °F 57.2 °F 30 in ENE 6.2 mph 11.5 mph 33% 0 in CLR
13:00 90.3 °F 58.1 °F 30 in NE 5.9 mph 9.2 mph 34% 0 in CLR
13:05 90.1 °F 57.9 °F 30 in NNE 5.9 mph 9.2 mph 34% 0 in CLR
13:10 90.1 °F 57.9 °F 30 in ENE 6.2 mph 9.2 mph 34% 0 in CLR
13:15 90.7 °F 58.5 °F 30 in NE 6.2 mph 13.8 mph 34% 0 in CLR
13:20 91 °F 58.8 °F 30 in NE 6.4 mph 11.5 mph 34% 0 in CLR
13:25 91.2 °F 58.8 °F 30 in NE 6.4 mph 5.9 mph 34% 0 in CLR
13:30 91.6 °F 59.2 °F 30 in NE 5.9 mph 12.7 mph 34% 0 in CLR
13:35 91.4 °F 59.2 °F 30 in East 5.9 mph 5.8 mph 34% 0 in CLR
13:40 91.6 °F 59.2 °F 30 in ENE 6.4 mph 10.4 mph 34% 0 in CLR
13:45 91.8 °F 59.4 °F 30 in NE 6.4 mph 10.4 mph 34% 0 in CLR
13:50 91.9 °F 58.6 °F 30 in NE 6.4 mph 9.2 mph 33% 0 in CLR
13:55 91.9 °F 59.5 °F 30 in North 6.4 mph 9.2 mph 34% 0 in CLR
14:00 92.1 °F 57.9 °F 30 in NE 7.6 mph 15 mph 32% 0 in CLR
14:05 92.3 °F 57.4 °F 29.9 in NNE 7.6 mph 17.3 mph 31% 0 in CLR
14:10 91.9 °F 56.1 °F 29.9 in NNE 10.2 mph 17.3 mph 30% 0 in CLR
14:15 92.1 °F 57 °F 29.9 in ENE 10.2 mph 13.8 mph 31% 0 in CLR
14:20 92.8 °F 57.7 °F 29.9 in NNW 8.5 mph 16.1 mph 31% 0 in CLR
14:25 93 °F 57 °F 29.9 in ESE 8.5 mph 12.7 mph 30% 0 in CLR
14:30 93.2 °F 57.2 °F 29.9 in NNE 8.5 mph 17.5 mph 30% 0 in CLR
14:35 92.8 °F 57.7 °F 29.9 in NE 8.5 mph 12.7 mph 31% 0 in CLR
14:40 92.8 °F 56.8 °F 29.9 in East 9.2 mph 15 mph 30% 0 in CLR
14:45 93 °F 57 °F 29.9 in East 9.2 mph 15 mph 30% 0 in CLR
14:50 93 °F 57 °F 29.9 in ENE 9.2 mph 15 mph 30% 0 in CLR
14:55 93.2 °F 57.2 °F 29.9 in ENE 9.2 mph 11.5 mph 30% 0 in CLR
15:00 92.8 °F 55.9 °F 29.9 in ENE 8.7 mph 17.3 mph 29% 0 in CLR
15:05 93.2 °F 56.1 °F 29.9 in East 8.7 mph 12.7 mph 29% 0 in CLR
15:10 93.6 °F 56.5 °F 29.9 in NE 6.9 mph 15 mph 29% 0 in CLR
15:15 93.6 °F 54.7 °F 29.9 in ENE 6.9 mph 16.1 mph 27% 0 in CLR
15:20 93 °F 56.1 °F 29.9 in NE 9.2 mph 15 mph 29% 0 in CLR
15:25 93.4 °F 56.5 °F 29.9 in NNE 9.2 mph 15 mph 29% 0 in CLR
15:30 93.4 °F 56.5 °F 29.9 in ENE 8.7 mph 10.4 mph 29% 0 in CLR
15:35 93.4 °F 54.3 °F 29.9 in NNE 8.7 mph 15 mph 27% 0 in CLR
15:40 93.2 °F 56.1 °F 29.9 in NNE 8.7 mph 15 mph 29% 0 in CLR
15:45 93.4 °F 55.4 °F 29.9 in NE 8.7 mph 13.5 mph 28% 0 in CLR
15:50 93.4 °F 55.4 °F 29.9 in NE 9.2 mph 13.8 mph 28% 0 in CLR
15:55 93.2 °F 55.2 °F 29.9 in East 9.2 mph 12.3 mph 28% 0 in CLR
16:00 93.7 °F 55.8 °F 29.9 in East 10 mph 17.3 mph 28% 0 in CLR
16:05 93.6 °F 55.6 °F 29.9 in NE 10 mph 17.3 mph 28% 0 in CLR
16:10 93.6 °F 56.5 °F 29.9 in ENE 10.2 mph 19.6 mph 29% 0 in CLR
16:15 93.2 °F 56.1 °F 29.9 in NNE 10.2 mph 17.3 mph 29% 0 in CLR
16:20 93.6 °F 56.5 °F 29.9 in ENE 11.2 mph 10.4 mph 29% 0 in CLR
16:25 93.6 °F 56.5 °F 29.9 in NE 11.2 mph 15.9 mph 29% 0 in CLR
16:30 93.4 °F 56.5 °F 29.9 in NNE 9.2 mph 13.8 mph 29% 0 in CLR
16:35 93.4 °F 56.5 °F 29.9 in NE 9.2 mph 18.4 mph 29% 0 in CLR
16:40 93 °F 57 °F 29.9 in NE 10.2 mph 17.3 mph 30% 0 in CLR
16:45 93 °F 57 °F 29.9 in ENE 10.2 mph 12.7 mph 30% 0 in CLR
16:50 92.8 °F 56.8 °F 29.9 in ENE 9.2 mph 15 mph 30% 0 in CLR
16:55 92.7 °F 57.6 °F 29.9 in NNE 9.2 mph 13.8 mph 31% 0 in CLR
17:00 92.8 °F 56.8 °F 29.9 in NE 8.7 mph 15.9 mph 30% 0 in CLR
17:05 92.5 °F 57.4 °F 29.9 in NNE 8.7 mph 17.3 mph 31% 0 in CLR
17:10 92.5 °F 58.3 °F 29.9 in NE 10.7 mph 15.9 mph 32% 0 in CLR
17:15 92.5 °F 57.4 °F 29.9 in East 10.7 mph 15 mph 31% 0 in CLR
17:20 92.7 °F 58.5 °F 29.9 in NE 9.2 mph 9.2 mph 32% 0 in CLR
17:25 92.7 °F 58.5 °F 29.9 in East 9.2 mph 10.4 mph 32% 0 in CLR
17:30 92.7 °F 57.6 °F 29.9 in ENE 7.4 mph 12.7 mph 31% 0 in CLR
17:35 92.7 °F 57.6 °F 29.9 in East 7.4 mph 15 mph 31% 0 in CLR
17:40 92.1 °F 57.9 °F 29.9 in ENE 8.7 mph 13.5 mph 32% 0 in CLR
17:45 91.9 °F 57.9 °F 29.9 in NE 8.7 mph 11.2 mph 32% 0 in CLR
17:50 92.5 °F 58.3 °F 29.9 in North 8.7 mph 13.8 mph 32% 0 in CLR
17:55 92.1 °F 58.8 °F 29.9 in ENE 8.7 mph 11.5 mph 33% 0 in CLR
18:00 92.1 °F 57.9 °F 29.9 in East 9.7 mph 16.1 mph 32% 0 in CLR
18:05 92.3 °F 58.3 °F 29.9 in East 9.7 mph 10.4 mph 32% 0 in CLR
18:10 92.3 °F 58.3 °F 29.9 in East 7.6 mph 16.1 mph 32% 0 in CLR
18:15 92.1 °F 57.9 °F 29.9 in NE 7.6 mph 15.2 mph 32% 0 in CLR
18:20 91.9 °F 57.9 °F 29.9 in NE 8.7 mph 11.5 mph 32% 0 in CLR
18:25 91.9 °F 57 °F 29.9 in NE 8.7 mph 15 mph 31% 0 in CLR
18:30 91.9 °F 57.9 °F 29.9 in NE 8.1 mph 16.1 mph 32% 0 in CLR
18:35 91.9 °F 57.9 °F 29.9 in NE 8.1 mph 12.7 mph 32% 0 in CLR
18:40 91.9 °F 57.9 °F 29.9 in NE 8.1 mph 10.4 mph 32% 0 in CLR
18:45 92.1 °F 57 °F 29.9 in ENE 8.1 mph 9.2 mph 31% 0 in CLR
18:50 91.8 °F 57.7 °F 29.9 in NE 7.6 mph 8.5 mph 32% 0 in CLR
18:55 91.6 °F 56.7 °F 29.9 in East 7.6 mph 13.8 mph 31% 0 in CLR
19:00 91.4 °F 57.4 °F 29.9 in North 8.7 mph 10.4 mph 32% 0 in CLR
19:05 91.4 °F 56.5 °F 29.9 in NE 8.7 mph 10.7 mph 31% 0 in CLR
19:10 91.2 °F 56.5 °F 29.9 in ESE 7.6 mph 10.4 mph 31% 0 in CLR
19:15 91.4 °F 56.5 °F 29.9 in ENE 7.6 mph 8.1 mph 31% 0 in CLR
19:20 91 °F 56.1 °F 29.9 in NE 7.6 mph 15 mph 31% 0 in CLR
19:25 91 °F 56.1 °F 29.9 in NE 7.6 mph 17.3 mph 31% 0 in CLR
19:30 90.9 °F 56.8 °F 29.9 in ENE 10 mph 15 mph 32% 0 in CLR
19:35 90.7 °F 57.6 °F 29.9 in NNE 10 mph 13.8 mph 33% 0 in CLR
19:40 90.5 °F 57.6 °F 29.9 in NNE 9.7 mph 10.4 mph 33% 0 in CLR
19:45 90.7 °F 58.5 °F 29.9 in ENE 9.7 mph 8.1 mph 34% 0 in CLR
19:50 90.3 °F 58.1 °F 29.9 in NE 7.6 mph 17.3 mph 34% 0 in CLR
19:55 90 °F 57.7 °F 29.9 in NE 7.6 mph 11.5 mph 34% 0 in CLR
20:00 90 °F 58.6 °F 29.9 in NE 8.5 mph 12.5 mph 35% 0 in CLR
20:05 89.8 °F 59.4 °F 29.9 in NE 8.5 mph 12.7 mph 36% 0 in CLR
20:10 89.4 °F 59 °F 29.9 in NE 8.7 mph 13.8 mph 36% 0 in CLR
20:15 89.2 °F 59.5 °F 29.9 in NE 8.7 mph 12.7 mph 37% 0 in CLR
20:20 88.9 °F 60.1 °F 29.9 in NE 8.7 mph 12.7 mph 38% 0 in CLR
20:25 88.5 °F 59.7 °F 29.9 in NE 8.7 mph 14 mph 38% 0 in CLR
20:30 88.2 °F 60.1 °F 29.9 in ENE 9.2 mph 17.3 mph 39% 0 in CLR
20:35 87.6 °F 60.3 °F 29.9 in NE 9.2 mph 12.5 mph 40% 0 in CLR
20:40 87.3 °F 60.1 °F 29.9 in ENE 9.7 mph 10.4 mph 40% 0 in CLR
20:45 87.1 °F 60.4 °F 29.9 in NE 9.7 mph 9.2 mph 41% 0 in CLR
20:50 86.7 °F 60.3 °F 29.9 in NE 7.6 mph 10.4 mph 41% 0 in CLR
20:55 86.5 °F 60.1 °F 29.9 in ENE 7.6 mph 9.2 mph 41% 0 in CLR
21:00 86.2 °F 59.7 °F 29.9 in NE 7.6 mph 9.2 mph 41% 0 in CLR
21:05 85.8 °F 60.1 °F 29.9 in NE 7.6 mph 13 mph 42% 0 in CLR
21:10 85.6 °F 59.2 °F 29.9 in NE 8.1 mph 11.5 mph 41% 0 in CLR
21:15 85.5 °F 59.2 °F 29.9 in ENE 8.1 mph 11.5 mph 41% 0 in CLR
21:20 85.3 °F 59.5 °F 29.9 in ENE 7.4 mph 9.2 mph 42% 0 in CLR
21:25 84.9 °F 59.4 °F 29.9 in ENE 7.4 mph 8.1 mph 42% 0 in CLR
21:30 84.7 °F 59.7 °F 29.9 in NE 6.4 mph 9.2 mph 43% 0 in CLR
21:35 84.6 °F 59.5 °F 29.9 in NNE 6.4 mph 9.2 mph 43% 0 in CLR
21:40 84.4 °F 60.1 °F 29.9 in NE 6.9 mph 9.2 mph 44% 0 in CLR
21:45 84 °F 59.7 °F 29.9 in ENE 6.9 mph 9.2 mph 44% 0 in CLR
21:50 83.8 °F 60.3 °F 29.9 in NNE 6.4 mph 9.2 mph 45% 0 in CLR
21:55 83.7 °F 60.1 °F 29.9 in NE 6.4 mph 10.4 mph 45% 0 in CLR
22:00 83.5 °F 60.4 °F 29.9 in NE 6.2 mph 8.1 mph 46% 0 in CLR
22:05 83.1 °F 60.3 °F 29.9 in NNE 6.2 mph 8.1 mph 46% 0 in CLR
22:10 82.9 °F 60.6 °F 29.9 in NE 5.4 mph 7.4 mph 47% 0 in CLR
22:15 82.6 °F 60.3 °F 29.9 in NE 5.4 mph 6.9 mph 47% 0 in CLR
22:20 82.2 °F 60.6 °F 29.9 in NNE 6.2 mph 9.2 mph 48% 0 in CLR
22:25 82 °F 60.4 °F 29.9 in NE 6.2 mph 6.9 mph 48% 0 in CLR
22:30 82 °F 61 °F 29.9 in NE 5.9 mph 8.1 mph 49% 0 in CLR
22:35 81.9 °F 60.8 °F 29.9 in NNE 5.9 mph 5.8 mph 49% 0 in CLR
22:40 81.9 °F 60.8 °F 29.9 in East 5.4 mph 6.9 mph 49% 0 in CLR
22:45 81.9 °F 60.8 °F 29.9 in ENE 5.4 mph 6.9 mph 49% 0 in CLR
22:50 81.7 °F 60.6 °F 30 in NE 5.2 mph 5.8 mph 49% 0 in CLR
22:55 81.7 °F 60.6 °F 30 in NE 5.2 mph 5.9 mph 49% 0 in CLR
23:00 81.7 °F 61.2 °F 30 in NNE 4.7 mph 7.4 mph 50% 0 in CLR
23:05 81.5 °F 61.2 °F 30 in NE 4.7 mph 6.9 mph 50% 0 in CLR
23:10 81.5 °F 61.2 °F 30 in ENE 4.7 mph 5.8 mph 50% 0 in CLR
23:15 81.5 °F 61.2 °F 30 in NE 4.7 mph 5.8 mph 50% 0 in CLR
23:20 81.5 °F 61.2 °F 30 in NNE 3.1 mph 3.6 mph 50% 0 in CLR
23:25 81.3 °F 61 °F 30 in NNE 3.1 mph 3.5 mph 50% 0 in CLR
23:30 81 °F 61.2 °F 30 in NNE 2 mph 4.6 mph 51% 0 in CLR
23:35 80.8 °F 61 °F 30 in NE 2 mph 1.2 mph 51% 0 in CLR
23:40 80.6 °F 60.8 °F 30 in NE 1.8 mph 2.3 mph 51% 0 in CLR
23:45 80.4 °F 61.2 °F 30 in NE 1.8 mph   52% 0 in CLR
23:50 80.2 °F 61 °F 30 in NE 1.4 mph 2.3 mph 52% 0 in CLR
23:55 80.1 °F 61.3 °F 30 in NE 1.4 mph 2.3 mph 53% 0 in CLR
Murcia-Puente Tocinos, España
Compliments of Weather Underground - 3.25 mb

La estación de MeteoMurcia.com, publica sus datos en los siguientes proyectos:

Weather Underground PWS IMURCIAP2 Meteoclimatic www.awekas.at

W3Counter
Web Analytics